Location: Dodgeville, WI 53533, USA
(43.0344°N, 90.0900°W)
Time: 05:12:28
(UTC-06:00)

X-37B - Pass Details

Date: 25 January 2021
Orbit: 383 x 391 km, 45.0° (Epoch: 27 February)

Event Time Altitude Azimuth Distance (km) Brightness Sun altitude
Rises 17:34:29 0° 267° (W) 2,268 6.2 -5.9°
Reaches altitude 10° 17:36:34 10° 271° (W) 1,415 4.8 -6.3°
Maximum altitude 17:39:44 62° 353° (N) 441 0.8 -6.8°
Drops below altitude 10° 17:42:55 10° 75° (ENE) 1,421 2.7 -7.4°
Enters shadow 17:42:57 10° 75° (ENE) 1,436 2.8 -7.4°
